Location: Newark
(25.4800°N, 85.7200°E)
Time: 22:25:40
(UTC+00:00)

Courier 1B Rocket - Visible Passes

Search period start: 24 August 2019 00:00
Search period end: 03 September 2019 00:00
Orbit: 920 x 1202 km, 28.3° (Epoch: 24 August)

Date Brightness Start Highest point End Pass type
(mag) Time Alt. Az. Time Alt. Az. Time Alt. Az.
24 Aug 7.1 20:08:46 22° E 20:08:46 22° E 20:11:09 10° ENE visible
24 Aug 5.4 21:55:08 46° WNW 21:57:34 73° N 22:05:21 10° E visible
25 Aug 5.7 20:57:52 57° ENE 20:57:52 57° ENE 21:03:51 10° ENE visible
25 Aug 5.5 22:44:14 17° WNW 22:50:21 75° N 22:58:10 10° E visible
26 Aug 7.3 20:00:38 18° ENE 20:00:38 18° ENE 20:02:23 10° ENE visible
26 Aug 5.4 21:47:00 51° WNW 21:48:56 72° N 21:56:39 10° E visible
27 Aug 6.0 20:49:49 47° ENE 20:49:49 47° ENE 20:55:07 10° E visible
27 Aug 5.4 22:36:12 20° WNW 22:41:40 82° N 22:49:29 10° E visible
28 Aug 7.6 19:52:42 14° ENE 19:52:42 14° ENE 19:53:37 10° ENE visible
28 Aug 5.3 21:39:05 62° NW 21:40:18 74° N 21:47:57 10° E visible
28 Aug 5.5 23:26:48 10° WNW 23:34:15 71° SSW 23:42:01 10° ESE visible
29 Aug 6.4 20:42:02 37° ENE 20:42:02 37° ENE 20:46:24 10° E visible
29 Aug 5.3 22:28:25 26° WNW 22:32:57 86° SSW 22:40:42 10° ESE visible
30 Aug 5.1 21:31:27 81° NNW 21:31:39 82° NNE 21:39:14 10° E visible
30 Aug 5.6 23:18:15 10° W 23:25:24 55° SSW 23:32:56 10° SE visible
31 Aug 6.8 20:34:33 27° E 20:34:33 27° E 20:37:43 10° E visible
31 Aug 5.2 22:20:57 35° W 22:24:11 70° SSW 22:31:47 10° ESE visible
01 Sep 6.7 13:46:58 10° SSE 13:48:24 12° SSE 13:48:24 12° SSE visible
01 Sep 5.4 21:24:09 65° ESE 21:24:09 65° ESE 21:30:27 10° ESE visible
01 Sep 5.9 23:10:33 13° W 23:16:32 40° SSW 23:23:35 10° SE visible
02 Sep 6.5 14:35:53 10° SSW 14:38:12 20° SSW 14:38:12 20° SSW visible
02 Sep 7.3 20:27:25 18° E 20:27:25 18° E 20:29:01 10° E visible
02 Sep 5.4 22:13:49 45° WSW 22:15:23 53° SSW 22:22:39 10° SE visible
